EW7906 Weather Reports


time (UTC)temp
C
wind
direction
speed
KPH
gust
KPH
rain 1hr
cm
rain 24hr
cm
rain mn
cm
humidity
%
barometer
mb
20260831035157 63 130 8.0 16.1 0.00 0.00 0.00 100 1015.1
20260831034657 63 129 9.7 16.1 0.00 0.00 0.00 100 1015.0
20260831034157 62 149 6.4 16.1 0.00 0.00 0.00 100 1015.0
20260831033927 62 150 6.4 16.1 0.00 0.00 0.00 100 1014.8
20260831033428 63 157 3.2 16.1 0.00 0.00 0.00 100 1014.8
20260831032656 63 170 3.2 16.1 0.00 0.00 0.00 100 1014.7
20260831032157 63 181 6.4 16.1 0.00 0.00 0.00 100 1014.6
20260831031657 63 139 3.2 12.9 0.00 0.00 0.00 100 1014.5
20260831031157 63 132 0.0 14.5 0.00 0.00 0.00 100 1014.5
20260831030657 63 133 4.8 16.1 0.00 0.00 0.00 100 1014.3
20260831030428 63 149 1.6 16.1 0.00 0.00 0.00 100 1014.2
20260831025658 63 127 6.4 17.7 0.00 0.00 0.00 100 1014.3
20260831025427 63 135 9.7 17.7 0.00 0.00 0.00 100 1014.2
20260831024657 63 168 4.8 16.1 0.00 0.00 0.00 100 1014.1
20260831024157 63 153 6.4 16.1 0.00 0.00 0.00 100 1014.1
20260831023656 63 172 8.0 16.1 0.00 0.00 0.00 100 1014.0
20260831023156 63 140 6.4 16.1 0.00 0.00 0.00 100 1014.0
20260831022656 63 135 6.4 19.3 0.00 0.00 0.00 100 1013.9
20260831022156 63 158 6.4 19.3 0.00 0.00 0.00 100 1013.8
20260831021656 63 143 8.0 17.7 0.00 0.00 0.00 100 1013.6
20260831021150 63 139 1.6 17.7 0.00 0.00 0.00 100 1013.5
20260831020650 63 164 3.2 19.3 0.00 0.00 0.00 100 1013.4
20260831020150 63 112 8.0 19.3 0.00 0.00 0.00 100 1013.4
20260831015643 63 161 4.8 16.1 0.00 0.00 0.00 100 1013.3
20260831015142 63 90 0.0 0.0 0.00 0.00 0.00 100 1013.1
20260831014626 63 90 0.0 0.0 0.00 0.00 0.00 100 1013.0
20260831014113 63 90 0.0 3.2 0.00 0.00 0.00 100 1012.9
20260831013616 63 130 0.0 0.0 0.00 0.00 0.00 100 1012.6
20260831013612 63 90 0.0 3.2 0.00 0.00 0.00 100 1012.9
20260831012830 63 130 0.0 8.0 0.00 0.00 0.00 100 1012.6
20260831012037 63 130 1.6 8.0 0.00 0.00 0.00 100 1012.6
20260831011528 63 129 0.0 6.4 0.00 0.00 0.00 100 1012.5
20260831011028 63 136 0.0 6.4 0.00 0.00 0.00 100 1012.5
20260831010500 63 149 0.0 11.3 0.00 0.00 0.00 100 1012.6
20260831010224 63 149 0.0 11.3 0.00 0.00 0.00 100 1012.5
20260831005427 63 174 0.0 8.0 0.00 0.00 0.00 100 1012.6
20260831004911 63 202 3.2 8.0 0.00 0.00 0.00 100 1012.6
20260831004412 63 147 0.0 11.3 0.00 0.00 0.00 100 1012.6
20260831003852 63 147 4.8 11.3 0.00 0.00 0.00 100 1012.5
20260831003351 63 129 4.8 9.7 0.00 0.00 0.00 100 1012.4
20260831002847 63 156 4.8 14.5 0.00 0.00 0.00 100 1012.4
20260831002330 63 104 6.4 14.5 0.00 0.00 0.00 100 1012.4
20260831001831 63 153 0.0 11.3 0.00 0.00 0.00 100 1012.3
20260831001309 64 153 0.0 11.3 0.00 0.00 0.00 100 1012.3
20260831000744 64 139 0.0 11.3 0.00 0.00 0.00 100 1012.3
20260831000242 64 136 1.6 12.9 0.00 0.00 0.00 100 1012.2
20260830235743 64 127 1.6 12.9 0.00 0.00 0.00 100 1012.3
20260830235234 64 112 6.4 9.7 0.00 0.00 0.00 100 1012.3
20260830234736 64 116 0.0 9.7 0.00 0.00 0.00 100 1012.3
20260830234233 64 153 0.0 14.5 0.00 0.00 0.00 100 1012.4
20260830234229 64 116 6.4 12.9 0.00 0.00 0.00 100 1012.3
20260830233446 64 146 4.8 12.9 0.00 0.00 0.00 100 1012.3
20260830232945 64 151 0.0 6.4 0.00 0.00 0.00 100 1012.2
20260830232212 65 230 1.6 16.1 0.00 0.00 0.00 100 1012.3
20260830231711 64 144 4.8 16.1 0.00 0.00 0.00 100 1012.4
20260830231210 65 180 0.0 12.9 0.00 0.00 0.00 100 1012.3
20260830230710 65 210 1.6 12.9 0.00 0.00 0.00 100 1012.3
20260830230207 65 125 4.8 14.5 0.00 0.00 0.00 100 1012.3
20260830225937 64 147 0.0 14.5 0.00 0.00 0.00 100 1012.3
20260830225158 64 143 9.7 14.5 0.00 0.00 0.00 100 1012.4
20260830224659 65 201 1.6 14.5 0.00 0.00 0.00 100 1012.5
20260830224143 65 192 8.0 11.3 0.00 0.00 0.00 100 1012.5
20260830223646 65 143 4.8 12.9 0.00 0.00 0.00 100 1012.5
20260830223642 65 147 3.2 12.9 0.00 0.00 0.00 100 1012.5
20260830222622 65 160 3.2 12.9 0.00 0.00 0.00 100 1012.5
20260830222113 65 130 3.2 17.7 0.00 0.00 0.00 100 1012.5
20260830221559 65 150 9.7 17.7 0.00 0.00 0.00 100 1012.6
20260830221059 65 129 0.0 14.5 0.00 0.00 0.00 100 1012.5
20260830220826 65 181 3.2 14.5 0.00 0.00 0.00 100 1012.8
20260830220056 65 122 3.2 12.9 0.00 0.00 0.00 100 1012.8
20260830215556 65 185 3.2 12.9 0.00 0.00 0.00 100 1012.8
20260830215058 64 153 0.0 16.1 0.00 0.00 0.00 100 1012.8
20260830214557 65 151 6.4 16.1 0.00 0.00 0.00 100 1012.9
20260830214055 65 194 1.6 14.5 0.00 0.00 0.00 100 1013.0
20260830213557 65 147 0.0 14.5 0.00 0.00 0.00 100 1013.0
20260830213056 65 213 9.7 12.9 0.00 0.00 0.00 100 1013.1
20260830212556 65 226 6.4 12.9 0.00 0.00 0.00 100 1013.2
20260830212057 64 120 1.6 12.9 0.00 0.00 0.00 100 1013.3
20260830211557 65 139 4.8 14.5 0.00 0.00 0.00 100 1013.4
20260830211056 65 146 8.0 14.5 0.00 0.00 0.00 100 1013.5
20260830210556 65 163 6.4 14.5 0.00 0.00 0.00 100 1013.6
20260830210326 64 125 6.4 14.5 0.00 0.00 0.00 100 1013.8
20260830205556 64 151 8.0 14.5 0.00 0.00 0.00 100 1013.8
20260830205056 64 154 4.8 16.1 0.00 0.00 0.00 100 1013.9
20260830204557 65 151 4.8 16.1 0.00 0.00 0.00 100 1013.9
20260830204057 64 216 6.4 16.1 0.00 0.00 0.00 100 1014.0
20260830203557 65 150 0.0 11.3 0.00 0.00 0.00 100 1014.1
20260830203057 65 142 6.4 11.3 0.00 0.00 0.00 100 1014.1
20260830202556 65 160 9.7 17.7 0.00 0.00 0.00 100 1014.2
20260830202056 65 194 4.8 17.7 0.00 0.00 0.00 100 1014.2
20260830201556 64 156 8.0 12.9 0.00 0.00 0.00 100 1014.3
20260830201056 64 174 6.4 19.3 0.00 0.00 0.00 100 1014.4
20260830200556 64 139 9.7 19.3 0.00 0.00 0.00 100 1014.5
20260830200056 65 177 1.6 12.9 0.00 0.00 0.00 100 1014.5
20260830195555 64 154 6.4 16.1 0.00 0.00 0.00 100 1014.6
20260830195056 64 105 0.0 16.1 0.00 0.00 0.00 100 1014.6
20260830194827 64 112 6.4 16.1 0.00 0.00 0.00 100 1014.8
20260830194055 64 133 8.0 14.5 0.00 0.00 0.00 100 1014.8
20260830193826 64 112 8.0 12.9 0.00 0.00 0.00 100 1015.0
20260830193057 64 146 0.0 14.5 0.00 0.00 0.00 100 1015.0
20260830192557 64 142 9.7 17.7 0.00 0.00 0.00 100 1015.1
20260830192057 64 88 11.3 17.7 0.00 0.00 0.00 100 1015.2
20260830191556 64 137 0.0 17.7 0.00 0.00 0.00 100 1015.3
20260830191055 64 157 11.3 19.3 0.00 0.00 0.00 100 1015.3
20260830190556 64 189 3.2 19.3 0.00 0.00 0.00 100 1015.4
20260830190056 64 180 8.0 17.7 0.00 0.00 0.00 100 1015.6
20260830185827 64 265 8.0 16.1 0.00 0.00 0.00 100 1015.7
20260830185327 64 153 6.4 12.9 0.00 0.00 0.00 100 1015.8
20260830184826 64 127 6.4 12.9 0.00 0.00 0.00 100 1015.7
20260830184056 64 189 6.4 14.5 0.00 0.00 0.00 100 1015.8
20260830183555 64 158 0.0 14.5 0.00 0.00 0.00 100 1015.9
20260830183056 63 146 6.4 16.1 0.00 0.00 0.00 100 1016.0
20260830182828 64 120 0.0 17.7 0.00 0.00 0.00 100 1016.1
20260830182056 63 123 1.6 17.7 0.00 0.00 0.00 100 1016.2
20260830181553 63 132 0.0 16.1 0.00 0.00 0.00 100 1016.2
20260830181045 63 189 9.7 16.1 0.00 0.00 0.00 100 1016.4
20260830180814 63 135 6.4 11.3 0.00 0.00 0.00 100 1016.5
20260830180043 63 104 8.0 11.3 0.00 0.00 0.00 100 1016.6
20260830175805 63 150 8.0 12.9 0.00 0.00 0.00 100 1016.8
20260830175036 63 161 6.4 12.9 0.00 0.00 0.00 100 1016.9
20260830174527 63 122 8.0 16.1 0.00 0.00 0.00 100 1017.0
20260830174018 63 157 8.0 16.1 0.00 0.00 0.00 100 1017.1
20260830173518 64 171 4.8 16.1 0.00 0.00 0.00 100 1017.1
20260830173017 63 115 1.6 16.1 0.00 0.00 0.00 100 1017.2
20260830172503 64 187 11.3 16.1 0.00 0.00 0.00 100 1017.3
20260830172002 64 153 8.0 12.9 0.00 0.00 0.00 100 1017.3
20260830171503 63 78 0.0 16.1 0.00 0.00 0.00 100 1017.5
20260830170957 64 156 6.4 16.1 0.00 0.00 0.00 100 1017.5
20260830170457 64 151 8.0 12.9 0.00 0.00 0.00 100 1017.5
20260830165957 64 150 4.8 11.3 0.00 0.00 0.00 100 1017.5
20260830165457 63 208 4.8 16.1 0.00 0.00 0.00 100 1017.5
20260830164957 63 172 3.2 16.1 0.00 0.00 0.00 100 1017.6
20260830164457 64 195 6.4 12.9 0.00 0.00 0.00 100 1017.6
20260830163956 64 95 0.0 11.3 0.00 0.00 0.00 100 1017.7
20260830163457 63 150 6.4 12.9 0.00 0.00 0.00 100 1017.7
20260830162956 63 135 6.4 12.9 0.00 0.00 0.00 100 1017.8
20260830162456 63 206 4.8 12.9 0.00 0.00 0.00 100 1017.7
20260830161957 63 151 4.8 12.9 0.00 0.00 0.00 100 1017.7
20260830161726 63 216 1.6 11.3 0.00 0.00 0.00 100 1017.7
20260830160955 63 195 1.6 14.5 0.00 0.00 0.00 100 1017.7
20260830160455 63 227 3.2 14.5 0.00 0.00 0.00 100 1017.7
20260830155953 63 142 4.8 11.3 0.00 0.00 0.00 100 1017.7
20260830155724 63 177 4.8 11.3 0.00 0.00 0.00 100 1017.7
20260830154953 63 220 4.8 12.9 0.00 0.00 0.00 100 1017.6
20260830154443 63 109 1.6 12.9 0.00 0.00 0.00 100 1017.6
20260830153928 63 244 0.0 12.9 0.00 0.00 0.00 100 1017.6
20260830153429 63 222 4.8 14.5 0.00 0.00 0.00 100 1017.6
20260830152928 63 203 4.8 14.5 0.00 0.00 0.00 100 1017.6
20260830152700 63 194 8.0 12.9 0.00 0.00 0.00 100 1017.5
20260830151927 63 201 3.2 16.1 0.00 0.00 0.00 100 1017.5
20260830151427 63 191 3.2 16.1 0.00 0.00 0.00 100 1017.5
20260830150926 63 212 6.4 16.1 0.00 0.00 0.00 100 1017.6
20260830150426 63 185 6.4 16.1 0.00 0.00 0.00 100 1017.6
20260830150158 63 160 3.2 16.1 0.00 0.00 0.00 100 1017.6
20260830145427 62 205 9.7 16.1 0.00 0.00 0.00 100 1017.6
20260830144927 62 127 6.4 16.1 0.00 0.00 0.00 100 1017.5
20260830144423 62 192 8.0 17.7 0.00 0.00 0.00 100 1017.5
20260830144155 62 101 4.8 17.7 0.00 0.00 0.00 100 1017.5
20260830143420 62 127 6.4 14.5 0.00 0.00 0.00 100 1017.6
20260830142919 62 170 1.6 17.7 0.00 0.00 0.00 100 1017.6
20260830142419 62 39 1.6 17.7 0.00 0.00 0.00 100 1017.6
20260830141918 62 189 11.3 16.1 0.00 0.00 0.00 100 1017.5
20260830141419 62 213 6.4 17.7 0.00 0.00 0.00 100 1017.5
20260830141150 62 195 9.7 17.7 0.00 0.00 0.00 100 1017.5
20260830140418 62 206 8.0 17.7 0.00 0.00 0.00 100 1017.3
20260830140148 62 210 4.8 14.5 0.00 0.00 0.00 100 1017.2
20260830135418 62 157 8.0 17.7 0.00 0.00 0.00 100 1017.2
20260830134914 62 144 11.3 17.7 0.00 0.00 0.00 100 1017.3
20260830134414 62 174 6.4 12.9 0.00 0.00 0.00 100 1017.2
20260830133914 62 191 3.2 11.3 0.00 0.00 0.00 100 1017.1
20260830133414 62 125 0.0 11.3 0.00 0.00 0.00 100 1017.1
20260830132910 62 172 0.0 6.4 0.00 0.00 0.00 100 1017.0
20260830132411 62 188 0.0 0.0 0.00 0.00 0.00 100 1016.9
20260830131855 62 188 0.0 0.0 0.00 0.00 0.00 100 1016.9
20260830131348 61 188 0.0 0.0 0.00 0.00 0.00 1 1017.0
20260830131121 61 188 0.0 0.0 0.00 0.00 0.00 1 1016.9
20260830130332 61 188 0.0 0.0 0.00 0.00 0.00 3 1016.9
20260830125829 61 188 0.0 0.0 0.00 0.00 0.00 4 1016.9
20260830125324 61 188 0.0 0.0 0.00 0.00 0.00 5 1016.8
20260830124814 61 188 0.0 0.0 0.00 0.00 0.00 6 1016.8
20260830124309 61 188 0.0 0.0 0.00 0.00 0.00 7 1016.8
20260830123810 61 188 0.0 0.0 0.00 0.00 0.00 11 1016.8
20260830123248 61 188 0.0 0.0 0.00 0.00 0.00 11 1016.7
20260830122747 61 188 0.0 0.0 0.00 0.00 0.00 8 1016.6
20260830122457 61 188 0.0 0.0 0.00 0.00 0.00 8 1016.6
20260830121702 61 188 0.0 0.0 0.00 0.00 0.00 6 1016.6
20260830121147 61 188 0.0 0.0 0.00 0.00 0.00 6 1016.5
20260830120644 61 188 0.0 0.0 0.00 0.00 0.00 6 1016.4
20260830120128 61 188 0.0 0.0 0.00 0.00 0.00 5 1016.4
20260830115622 61 188 0.0 0.0 0.00 0.00 0.00 4 1016.4
20260830115102 61 188 0.0 0.0 0.00 0.00 0.00 4 1016.4
20260830114540 61 188 0.0 0.0 0.00 0.00 0.00 3 1016.4
20260830114033 61 188 0.0 0.0 0.00 0.00 0.00 3 1016.4
20260830113525 61 188 0.0 0.0 0.00 0.00 0.00 2 1016.4
20260830113255 61 188 0.0 0.0 0.00 0.00 0.00 1 1016.4
20260830112621 61 188 0.0 0.0 0.00 0.00 0.00 1 1016.3
20260830111444 61 188 0.0 0.0 0.00 0.00 0.00 100 1016.2
20260830110928 61 188 0.0 0.0 0.00 0.00 0.00 100 1016.1
20260830110655 61 188 0.0 0.0 0.00 0.00 0.00 100 1016.1
20260830105925 61 188 0.0 0.0 0.00 0.00 0.00 100 1016.2
20260830105412 61 188 0.0 0.0 0.00 0.00 0.00 100 1016.1
20260830105127 61 188 0.0 0.0 0.00 0.00 0.00 100 1016.1
20260830104333 61 188 0.0 0.0 0.00 0.00 0.00 100 1016.0
20260830103812 61 188 0.0 0.0 0.00 0.00 0.00 100 1016.0
20260830103304 61 188 0.0 0.0 0.00 0.00 0.00 100 1016.0
20260830102803 61 188 0.0 0.0 0.00 0.00 0.00 100 1015.9
20260830102250 61 188 0.0 0.0 0.00 0.00 0.00 100 1016.0
20260830101730 61 188 0.0 8.0 0.00 0.00 0.00 100 1015.9
20260830101224 61 188 0.0 8.0 0.00 0.00 0.00 100 1016.0
20260830100716 61 175 0.0 0.0 0.00 0.00 0.00 100 1016.0
20260830100210 61 175 0.0 0.0 0.00 0.00 0.00 100 1015.9
20260830095942 61 175 0.0 0.0 0.00 0.00 0.00 100 1015.9
20260830095206 62 175 0.0 0.0 0.00 0.00 0.00 100 1015.9
20260830094703 62 175 0.0 0.0 0.00 0.00 0.00 100 1015.9
20260830094156 62 175 0.0 0.0 0.00 0.00 0.00 100 1015.9
20260830093651 62 175 0.0 0.0 0.00 0.00 0.00 100 1016.0
20260830093123 62 175 0.0 8.0 0.00 0.00 0.00 100 1016.0
20260830092601 62 175 0.0 8.0 0.00 0.00 0.00 100 1016.0
20260830092027 62 174 0.0 1.6 0.00 0.00 0.00 100 1016.1
20260830091514 62 174 0.0 4.8 0.00 0.00 0.00 100 1016.0
20260830090955 62 174 0.0 4.8 0.00 0.00 0.00 100 1016.0
20260830090430 62 172 0.0 0.0 0.00 0.00 0.00 100 1016.1
20260830085917 62 172 0.0 6.4 0.00 0.00 0.00 100 1016.0
20260830085646 62 172 0.0 6.4 0.00 0.00 0.00 100 1016.1
20260830084857 62 185 0.0 4.8 0.00 0.00 0.00 100 1016.2
20260830084357 62 167 0.0 9.7 0.00 0.00 0.00 100 1016.2
20260830084107 62 167 3.2 9.7 0.00 0.00 0.00 100 1016.1
20260830083313 62 101 0.0 4.8 0.00 0.00 0.00 100 1016.1
20260830082751 62 101 0.0 1.6 0.00 0.00 0.00 100 1016.1
20260830082246 62 101 0.0 4.8 0.00 0.00 0.00 100 1016.1
20260830081740 62 101 0.0 4.8 0.00 0.00 0.00 100 1016.1
20260830081240 62 135 0.0 0.0 0.00 0.00 0.00 100 1016.2
20260830080737 62 135 0.0 6.4 0.00 0.00 0.00 100 1016.2
20260830080235 62 135 0.0 6.4 0.00 0.00 0.00 100 1016.2
20260830075728 62 177 0.0 8.0 0.00 0.00 0.00 100 1016.3
20260830075229 62 177 0.0 8.0 0.00 0.00 0.00 100 1016.3
20260830074725 62 146 0.0 9.7 0.00 0.00 0.00 100 1016.3
20260830074217 62 164 1.6 9.7 0.00 0.00 0.00 100 1016.3
20260830073715 62 161 3.2 6.4 0.00 0.00 0.00 100 1016.3
20260830073210 62 201 0.0 0.0 0.00 0.00 0.00 100 1016.3
20260830072704 62 201 0.0 0.0 0.00 0.00 0.00 100 1016.5
20260830072427 62 201 0.0 0.0 0.00 0.00 0.00 100 1016.5
20260830071634 62 201 0.0 0.0 0.00 0.00 0.00 100 1016.5
20260830071130 62 201 0.0 0.0 0.00 0.00 0.00 100 1016.4
20260830070620 62 201 0.0 0.0 0.00 0.00 0.00 100 1016.4
20260830070112 62 201 0.0 0.0 0.00 0.00 0.00 100 1016.4
20260830065612 62 201 0.0 0.0 0.00 0.00 0.00 100 1016.4
20260830065100 62 201 0.0 0.0 0.00 0.00 0.00 100 1016.3
20260830064532 62 201 0.0 0.0 0.00 0.00 0.00 100 1016.3
20260830064010 62 201 0.0 4.8 0.00 0.00 0.00 100 1016.3
20260830063457 62 201 0.0 8.0 0.00 0.00 0.00 100 1016.3
20260830062950 62 215 0.0 8.0 0.00 0.00 0.00 100 1016.3
20260830062451 62 170 0.0 0.0 0.00 0.00 0.00 100 1016.2
20260830061935 62 170 0.0 8.0 0.00 0.00 0.00 100 1016.3
20260830061435 62 170 3.2 8.0 0.00 0.00 0.00 100 1016.3
20260830060929 62 123 0.0 0.0 0.00 0.00 0.00 100 1016.2
20260830060430 62 123 0.0 9.7 0.00 0.00 0.00 100 1016.2
20260830055929 62 123 0.0 9.7 0.00 0.00 0.00 100 1016.2
20260830055428 62 137 1.6 9.7 0.00 0.00 0.00 100 1016.1
20260830054928 62 137 0.0 9.7 0.00 0.00 0.00 100 1016.2
20260830054419 62 174 0.0 9.7 0.00 0.00 0.00 100 1016.1
20260830054127 62 174 0.0 9.7 0.00 0.00 0.00 100 1016.1
20260830053349 62 156 0.0 8.0 0.00 0.00 0.00 100 1016.1
20260830052847 62 132 0.0 8.0 0.00 0.00 0.00 100 1016.1
20260830052342 62 132 0.0 11.3 0.00 0.00 0.00 100 1016.1
20260830051829 62 127 1.6 11.3 0.00 0.00 0.00 100 1016.0
20260830051326 62 126 1.6 9.7 0.00 0.00 0.00 100 1016.0
20260830050815 62 154 0.0 9.7 0.00 0.00 0.00 100 1016.1
20260830050245 62 191 4.8 11.3 0.00 0.00 0.00 100 1015.9
20260830045745 62 234 3.2 17.7 0.00 0.00 0.00 100 1016.0
20260830045241 62 147 4.8 17.7 0.00 0.00 0.00 100 1016.0
20260830044740 62 104 1.6 17.7 0.00 0.00 0.00 100 1016.0
20260830044500 63 153 6.4 17.7 0.00 0.00 0.00 100 1016.0
20260830043729 62 201 4.8 11.3 0.00 0.00 0.00 100 1016.0
20260830043229 63 130 4.8 11.3 0.00 0.00 0.00 100 1016.0
20260830042728 63 147 0.0 12.9 0.00 0.00 0.00 100 1016.0
20260830042440 63 164 0.0 12.9 0.00 0.00 0.00 100 1016.0
20260830041709 63 130 3.2 11.3 0.00 0.00 0.00 100 1016.0
20260830041202 63 142 6.4 12.9 0.00 0.00 0.00 100 1016.0
20260830040700 63 115 4.8 12.9 0.00 0.00 0.00 100 1016.0
20260830040159 63 156 0.0 14.5 0.00 0.00 0.00 100 1016.0
20260830035928 63 171 8.0 14.5 0.00 0.00 0.00 100 1015.9